Regional Weather Roundup
Issued by NWS Sioux Falls, SD

Home | Current Version | Previous Version | Text Only | Print | Product List | Glossary On
Versions: 1 2 3 4 5 6 7 8 9 10 11 12 13 14 15 16 17 18 19 20 21 22 23 24 25 26 27 28 29 30 31 32 33 34 35 36 37 38 39 40 41 42 43 44 45 46 47 48 49 50
000
ASUS43 KFSD 051710
RWRFSD

WEATHER ROUNDUP FOR SE SOUTH DAKOTA/SW MINNESOTA/NW IOWA
NATIONAL WEATHER SERVICE SIOUX FALLS SD
1200 PM CDT SAT SEP 05 2015

NOTE: "FAIR" INDICATES FEW OR NO CLOUDS BELOW 12,000 FEET WITH NO
SIGNIFICANT WEATHER AND OR OBSTRUCTIONS TO VISIBILITY.


SDZ038>040-050-052>070-051800-
SOUTHEAST SOUTH DAKOTA

CITY           SKY/WX    TMP DP  RH WIND       PRES   REMARKS
BROOKINGS      CLOUDY    79  70  73 S13       29.87F
CHAMBERLAIN    CLOUDY    79  69  72 S8        29.80R
HURON          CLOUDY    77  68  73 S7        29.79S
MADISON        FAIR      79  73  83 S14G20    29.86S
MITCHELL       CLOUDY    83  70  64 S9        29.80S
SIOUX FALLS    CLOUDY    82  72  71 S20       29.86S
WINNER         FAIR      80  65  59 SE7       29.79F
YANKTON        PTSUNNY   86  70  58 S14       29.82S
$$

MNZ071-072-080-081-089-090-097-098-051800-
SOUTHWEST MINNESOTA

CITY           SKY/WX    TMP DP  RH WIND       PRES   REMARKS
FAIRMONT       CLOUDY    79  70  73 SE10      29.95S
JACKSON        PTSUNNY   81  72  74 S14       29.95S
LUVERNE        PTSUNNY   82  70  65 S14G20    29.90R
MARSHALL       CLOUDY    82  68  61 S17       29.88S
MONTEVIDEO     CLOUDY    81  72  74 S12G20    29.87S
PIPESTONE      CLOUDY    81  70  69 S13       29.88F
REDWOOD FALLS  PTSUNNY   82  72  71 S24       29.88F
TRACY          PTSUNNY   82  72  72 S16G22    29.88F
WINDOM         PTSUNNY   81  70  69 S9        29.92F
WORTHINGTON    PTSUNNY   81  70  69 S18       29.92S
$$

IAZ001>003-012>014-020>022-031-032-NEZ013-014-SDZ071-051800-
NORTHWEST IOWA

CITY           SKY/WX    TMP DP  RH WIND       PRES   REMARKS
CHEROKEE       MOSUNNY   84  73  68 S18       29.92S
DENISON        SUNNY     84  73  70 S16G23    29.94S
ESTHERVILLE    PTSUNNY   81  71  71 S15G23    29.94F
LE MARS        MOSUNNY   84  73  70 S15G23    29.90R
ORANGE CITY    MOSUNNY   82  72  69 S16G23    29.90S
SHELDON        PTSUNNY   84  73  70 S14G22    29.90S
SIOUX CITY     MOSUNNY   85  72  65 S16G28    29.89R
SPENCER        CLOUDY    84  71  65 S17G26    29.93F
STORM LAKE     MOSUNNY   82  73  74 S16G24    29.96S
$$

ABBREVIATIONS USED IN REMARKS
   TC - TEMPERATURE IN CELSIUS
  WCI - WIND CHILL INDEX
   HX - HEAT INDEX
  VSB - VISIBILITY



USA.gov is the U.S. government's official web portal to all federal, state and local government web resources and services.